| time (UTC) | temp C | wind direction | speed KPH | gust KPH | rain 1hr cm | rain 24hr cm | rain mn cm | humidity % | barometer mb |
| 20260901041559 | 22 | 251 | 0.0 | 0.0 | 0.00 | 0.00 | 0.00 | 56 | 1006.4 |
| 20260901040559 | 22 | 251 | 0.0 | 0.0 | 0.00 | 0.00 | 0.00 | 55 | 1006.2 |
| 20260901035557 | 23 | 251 | 0.0 | 0.0 | 0.00 | 0.00 | 0.00 | 52 | 1006.0 |
| 20260901034557 | 23 | 251 | 0.0 | 0.0 | 0.00 | 0.00 | 0.00 | 51 | 1006.0 |
| 20260901033556 | 24 | 251 | 0.0 | 0.0 | 0.00 | 0.00 | 0.00 | 50 | 1005.8 |
| 20260901031553 | 25 | 251 | 0.0 | 0.0 | 0.00 | 0.00 | 0.00 | 47 | 1005.5 |
| 20260901030552 | 25 | 251 | 0.0 | 0.0 | 0.00 | 0.00 | 0.00 | 46 | 1005.5 |
| 20260901025552 | 26 | 251 | 0.0 | 0.0 | 0.00 | 0.00 | 0.00 | 44 | 1005.5 |
| 20260901023549 | 27 | 251 | 0.0 | 0.0 | 0.00 | 0.00 | 0.00 | 41 | 1005.5 |
| 20260901022549 | 27 | 251 | 0.0 | 0.0 | 0.00 | 0.00 | 0.00 | 42 | 1005.5 |
| 20260901015546 | 28 | 196 | 0.0 | 0.0 | 0.00 | 0.00 | 0.00 | 40 | 1005.3 |
| 20260901014544 | 28 | 248 | 0.0 | 0.0 | 0.00 | 0.00 | 0.00 | 40 | 1005.2 |
| 20260901013543 | 28 | 224 | 0.0 | 0.0 | 0.00 | 0.00 | 0.00 | 39 | 1005.2 |
| 20260901012542 | 28 | 246 | 0.0 | 0.0 | 0.00 | 0.00 | 0.00 | 39 | 1005.3 |
| 20260901011541 | 29 | 246 | 0.0 | 0.0 | 0.00 | 0.00 | 0.00 | 38 | 1005.4 |
| 20260901005539 | 31 | 205 | 4.8 | 0.0 | 0.00 | 0.00 | 0.00 | 34 | 1005.3 |
| 20260901004538 | 31 | 225 | 0.0 | 0.0 | 0.00 | 0.00 | 0.00 | 33 | 1005.3 |
| 20260901003537 | 32 | 236 | 0.0 | 0.0 | 0.00 | 0.00 | 0.00 | 33 | 1005.3 |
| 20260901002536 | 32 | 232 | 0.0 | 0.0 | 0.00 | 0.00 | 0.00 | 32 | 1005.4 |
| 20260901000534 | 31 | 233 | 0.0 | 0.0 | 0.00 | 0.00 | 0.00 | 33 | 1005.5 |
| 20260831235533 | 31 | 233 | 0.0 | 0.0 | 0.00 | 0.00 | 0.00 | 32 | 1005.5 |
| 20260831233531 | 31 | 252 | 0.0 | 0.0 | 0.00 | 0.00 | 0.00 | 31 | 1005.6 |
| 20260831231529 | 31 | 338 | 0.0 | 0.0 | 0.00 | 0.00 | 0.00 | 31 | 1005.6 |
| 20260831230528 | 30 | 338 | 0.0 | 0.0 | 0.00 | 0.00 | 0.00 | 33 | 1005.7 |
| 20260831225527 | 30 | 338 | 0.0 | 0.0 | 0.00 | 0.00 | 0.00 | 36 | 1005.9 |
| 20260831224526 | 30 | 232 | 0.0 | 0.0 | 0.00 | 0.00 | 0.00 | 35 | 1006.0 |
| 20260831223525 | 30 | 231 | 0.0 | 0.0 | 0.00 | 0.00 | 0.00 | 35 | 1006.2 |
| 20260831222524 | 30 | 231 | 0.0 | 0.0 | 0.00 | 0.00 | 0.00 | 36 | 1006.1 |
| 20260831220522 | 31 | 230 | 0.0 | 0.0 | 0.00 | 0.00 | 0.00 | 34 | 1006.3 |
| 20260831215521 | 31 | 322 | 0.0 | 0.0 | 0.00 | 0.00 | 0.00 | 34 | 1006.5 |
| 20260831214520 | 31 | 285 | 0.0 | 0.0 | 0.00 | 0.00 | 0.00 | 34 | 1006.5 |
| 20260831213519 | 31 | 48 | 0.0 | 0.0 | 0.00 | 0.00 | 0.00 | 35 | 1006.8 |
| 20260831212518 | 31 | 311 | 0.0 | 0.0 | 0.00 | 0.00 | 0.00 | 34 | 1006.8 |
| 20260831211517 | 30 | 310 | 0.0 | 0.0 | 0.00 | 0.00 | 0.00 | 38 | 1006.9 |
| 20260831210516 | 29 | 331 | 0.0 | 0.0 | 0.00 | 0.00 | 0.00 | 38 | 1007.0 |
| 20260831205515 | 29 | 323 | 0.0 | 0.0 | 0.00 | 0.00 | 0.00 | 40 | 1007.1 |
| 20260831203513 | 28 | 336 | 0.0 | 0.0 | 0.00 | 0.00 | 0.00 | 42 | 1007.3 |
| 20260831202512 | 27 | 329 | 6.4 | 0.0 | 0.00 | 0.00 | 0.00 | 43 | 1007.4 |
| 20260831201511 | 27 | 335 | 0.0 | 0.0 | 0.00 | 0.00 | 0.00 | 44 | 1007.6 |
| 20260831200510 | 26 | 5 | 0.0 | 0.0 | 0.00 | 0.00 | 0.00 | 45 | 1007.7 |
| 20260831195509 | 26 | 323 | 0.0 | 0.0 | 0.00 | 0.00 | 0.00 | 47 | 1007.8 |
| 20260831194508 | 25 | 322 | 0.0 | 0.0 | 0.00 | 0.00 | 0.00 | 49 | 1008.0 |
| 20260831193507 | 25 | 112 | 0.0 | 0.0 | 0.00 | 0.00 | 0.00 | 50 | 1008.0 |
| 20260831192506 | 24 | 316 | 0.0 | 0.0 | 0.00 | 0.00 | 0.00 | 51 | 1008.1 |
| 20260831191505 | 24 | 329 | 6.4 | 0.0 | 0.00 | 0.00 | 0.00 | 52 | 1008.4 |
| 20260831190504 | 23 | 326 | 0.0 | 0.0 | 0.00 | 0.00 | 0.00 | 53 | 1008.6 |
| 20260831185503 | 23 | 325 | 0.0 | 0.0 | 0.00 | 0.00 | 0.00 | 54 | 1008.7 |
| 20260831184502 | 23 | 320 | 0.0 | 0.0 | 0.00 | 0.00 | 0.00 | 55 | 1008.8 |
| 20260831183501 | 23 | 326 | 0.0 | 0.0 | 0.00 | 0.00 | 0.00 | 55 | 1008.9 |
| 20260831182459 | 23 | 330 | 0.0 | 0.0 | 0.00 | 0.00 | 0.00 | 54 | 1009.1 |
| 20260831181459 | 23 | 313 | 0.0 | 0.0 | 0.00 | 0.00 | 0.00 | 55 | 1009.2 |
| 20260831180459 | 23 | 331 | 8.0 | 0.0 | 0.00 | 0.00 | 0.00 | 55 | 1009.3 |
| 20260831175457 | 23 | 319 | 0.0 | 0.0 | 0.00 | 0.00 | 0.00 | 58 | 1009.5 |
| 20260831172453 | 20 | 330 | 0.0 | 0.0 | 0.00 | 0.00 | 0.00 | 66 | 1009.7 |
| 20260831171453 | 18 | 320 | 0.0 | 0.0 | 0.00 | 0.00 | 0.00 | 70 | 1009.8 |
| 20260831165450 | 17 | 331 | 0.0 | 0.0 | 0.00 | 0.00 | 0.00 | 75 | 1009.9 |
| 20260831164449 | 16 | 312 | 4.8 | 0.0 | 0.00 | 0.00 | 0.00 | 77 | 1010.0 |
| 20260831163448 | 16 | 315 | 0.0 | 0.0 | 0.00 | 0.00 | 0.00 | 78 | 1010.0 |
| 20260831162448 | 16 | 319 | 6.4 | 0.0 | 0.00 | 0.00 | 0.00 | 80 | 1010.0 |
| 20260831161446 | 15 | 324 | 0.0 | 0.0 | 0.00 | 0.00 | 0.00 | 81 | 1010.3 |
| 20260831160445 | 15 | 327 | 0.0 | 0.0 | 0.00 | 0.00 | 0.00 | 82 | 1010.3 |
| 20260831154444 | 15 | 325 | 0.0 | 0.0 | 0.00 | 0.00 | 0.00 | 84 | 1010.3 |
| 20260831153442 | 15 | 317 | 0.0 | 0.0 | 0.00 | 0.00 | 0.00 | 85 | 1010.3 |
| 20260831152442 | 14 | 316 | 3.2 | 0.0 | 0.00 | 0.00 | 0.00 | 86 | 1010.4 |
| 20260831151440 | 14 | 323 | 8.0 | 0.0 | 0.00 | 0.00 | 0.00 | 87 | 1010.7 |
| 20260831150439 | 13 | 325 | 0.0 | 0.0 | 0.00 | 0.00 | 0.00 | 88 | 1010.6 |
| 20260831145438 | 13 | 318 | 0.0 | 0.0 | 0.00 | 0.00 | 0.00 | 89 | 1010.7 |
| 20260831144438 | 13 | 320 | 0.0 | 0.0 | 0.00 | 0.00 | 0.00 | 89 | 1010.7 |
| 20260831143436 | 13 | 320 | 0.0 | 0.0 | 0.00 | 0.00 | 0.00 | 89 | 1010.7 |
| 20260831142436 | 13 | 320 | 0.0 | 0.0 | 0.00 | 0.00 | 0.00 | 89 | 1010.6 |
| 20260831141434 | 13 | 320 | 0.0 | 0.0 | 0.00 | 0.00 | 0.00 | 88 | 1010.6 |
| 20260831140433 | 13 | 320 | 0.0 | 0.0 | 0.00 | 0.00 | 0.00 | 88 | 1010.7 |
| 20260831135432 | 13 | 320 | 0.0 | 0.0 | 0.00 | 0.00 | 0.00 | 88 | 1010.8 |
| 20260831133430 | 13 | 320 | 0.0 | 0.0 | 0.00 | 0.00 | 0.00 | 87 | 1010.7 |
| 20260831132429 | 13 | 320 | 0.0 | 0.0 | 0.00 | 0.00 | 0.00 | 87 | 1010.8 |
| 20260831130427 | 13 | 320 | 0.0 | 0.0 | 0.00 | 0.00 | 0.00 | 87 | 1010.8 |
| 20260831125426 | 13 | 320 | 0.0 | 0.0 | 0.00 | 0.00 | 0.00 | 86 | 1010.9 |
| 20260831124425 | 13 | 320 | 0.0 | 0.0 | 0.00 | 0.00 | 0.00 | 86 | 1011.0 |
| 20260831123424 | 13 | 320 | 0.0 | 0.0 | 0.00 | 0.00 | 0.00 | 86 | 1010.9 |
| 20260831122423 | 13 | 320 | 0.0 | 0.0 | 0.00 | 0.00 | 0.00 | 86 | 1011.1 |
| 20260831121422 | 13 | 320 | 0.0 | 0.0 | 0.00 | 0.00 | 0.00 | 86 | 1011.2 |
| 20260831120421 | 13 | 320 | 0.0 | 0.0 | 0.00 | 0.00 | 0.00 | 86 | 1011.2 |
| 20260831115420 | 14 | 320 | 0.0 | 0.0 | 0.00 | 0.00 | 0.00 | 85 | 1011.2 |
| 20260831114419 | 14 | 320 | 0.0 | 0.0 | 0.00 | 0.00 | 0.00 | 84 | 1011.3 |
| 20260831113418 | 14 | 320 | 0.0 | 0.0 | 0.00 | 0.00 | 0.00 | 84 | 1011.4 |
| 20260831112417 | 14 | 320 | 0.0 | 0.0 | 0.00 | 0.00 | 0.00 | 84 | 1011.4 |
| 20260831111416 | 15 | 320 | 0.0 | 0.0 | 0.00 | 0.00 | 0.00 | 83 | 1011.5 |
| 20260831105414 | 15 | 320 | 0.0 | 0.0 | 0.00 | 0.00 | 0.00 | 83 | 1011.6 |
| 20260831103412 | 15 | 320 | 0.0 | 0.0 | 0.00 | 0.00 | 0.00 | 82 | 1011.6 |
| 20260831102411 | 15 | 320 | 0.0 | 0.0 | 0.00 | 0.00 | 0.00 | 82 | 1011.7 |
| 20260831101410 | 15 | 320 | 0.0 | 0.0 | 0.00 | 0.00 | 0.00 | 81 | 1011.7 |
| 20260831100409 | 15 | 320 | 0.0 | 0.0 | 0.00 | 0.00 | 0.00 | 81 | 1011.8 |
| 20260831095408 | 15 | 320 | 0.0 | 0.0 | 0.00 | 0.00 | 0.00 | 81 | 1011.9 |
| 20260831094407 | 15 | 320 | 0.0 | 0.0 | 0.00 | 0.00 | 0.00 | 81 | 1012.0 |
| 20260831093406 | 15 | 320 | 0.0 | 0.0 | 0.00 | 0.00 | 0.00 | 81 | 1012.1 |
| 20260831092405 | 15 | 320 | 0.0 | 0.0 | 0.00 | 0.00 | 0.00 | 81 | 1012.1 |
| 20260831091404 | 15 | 320 | 0.0 | 0.0 | 0.00 | 0.00 | 0.00 | 81 | 1012.2 |
| 20260831090403 | 15 | 320 | 0.0 | 0.0 | 0.00 | 0.00 | 0.00 | 80 | 1012.3 |
| 20260831083400 | 16 | 319 | 0.0 | 0.0 | 0.00 | 0.00 | 0.00 | 79 | 1012.6 |
| 20260831082359 | 16 | 319 | 0.0 | 0.0 | 0.00 | 0.00 | 0.00 | 78 | 1012.8 |
| 20260831081358 | 16 | 320 | 0.0 | 0.0 | 0.00 | 0.00 | 0.00 | 78 | 1012.8 |
| 20260831080357 | 16 | 320 | 0.0 | 0.0 | 0.00 | 0.00 | 0.00 | 77 | 1012.9 |
| 20260831075356 | 16 | 319 | 0.0 | 0.0 | 0.00 | 0.00 | 0.00 | 77 | 1013.0 |
| 20260831073354 | 17 | 319 | 0.0 | 0.0 | 0.00 | 0.00 | 0.00 | 76 | 1013.0 |
| 20260831071352 | 17 | 319 | 0.0 | 0.0 | 0.00 | 0.00 | 0.00 | 75 | 1013.2 |
| 20260831070351 | 17 | 319 | 0.0 | 0.0 | 0.00 | 0.00 | 0.00 | 74 | 1013.2 |
| 20260831065349 | 17 | 319 | 0.0 | 0.0 | 0.00 | 0.00 | 0.00 | 74 | 1013.3 |
| 20260831064349 | 17 | 309 | 0.0 | 0.0 | 0.00 | 0.00 | 0.00 | 74 | 1013.4 |
| 20260831063348 | 17 | 327 | 0.0 | 0.0 | 0.00 | 0.00 | 0.00 | 73 | 1013.5 |
| 20260831060344 | 18 | 327 | 0.0 | 0.0 | 0.00 | 0.00 | 0.00 | 71 | 1013.7 |
| 20260831053341 | 18 | 325 | 4.8 | 0.0 | 0.00 | 0.00 | 0.00 | 70 | 1013.9 |
| 20260831051340 | 18 | 325 | 0.0 | 0.0 | 0.00 | 0.00 | 0.00 | 69 | 1014.2 |
| 20260831050338 | 18 | 317 | 3.2 | 0.0 | 0.00 | 0.00 | 0.00 | 68 | 1014.2 |
| 20260831045337 | 18 | 317 | 3.2 | 0.0 | 0.00 | 0.00 | 0.00 | 68 | 1014.3 |
| 20260831044337 | 18 | 317 | 0.0 | 0.0 | 0.00 | 0.00 | 0.00 | 67 | 1014.3 |
| 20260831043335 | 18 | 320 | 0.0 | 0.0 | 0.00 | 0.00 | 0.00 | 66 | 1014.4 |